Lid_Strength_Index
2 2 1 1 1 1 1 1 0 0 0 0 0 0 0 0 -0 0 0 0 1 1 1 1 1 0 1 1 1 1 1 1 3 2 1 0 0 0 -0 -0 0 1 2
1 1 1 1 1 1 1 0 0 0 -0 0 0 0 0 0 0 0 1 1 1 2 2 1 1 1 1 0 1 1 1 1 2 3 2 1 1 0 1 1 2 1 2
1 1 1 1 1 1 1 0 0 0 0 0 0 1 1 0 0 0 1 1 1 1 1 1 1 1 1 1 1 1 1 1 1 2 3 1 2 2 3 2 2 2 2
1 1 2 1 1 1 1 0 0 0 0 0 0 0 0 0 0 0 1 1 1 1 1 1 1 1 1 1 1 1 1 1 1 2 3 3 3 2 3 4 4 3 3
2 2 2 1 1 1 1 1 0 0 0 0 0 0 0 0 1 1 1 1 1 2 1 1 0 1 1 1 1 1 1 2 2 3 3 3 4 3 4 4 4 4 4
2 2 1 1 1 1 1 1 1 0 0 1 1 1 1 0 10 7 2 1 1 1 2 1 1 1 2 4 4 3 1 1 2 3 3 3 3 3 3 4 4 5 6
2 2 1 1 1 1 1 1 1 1 1 1 1 0 1 1 10 8 6 1 1 1 1 2 1 1 2 1 5 5 5 5 2 1 2 3 4 3 3 4 4 3 4
2 2 1 1 2 1 1 1 1 1 1 1 1 1 1 3 9 9 7 0 1 1 2 2 2 1 2 1 1 1 1 0 0 0 0 1 1 2 3 3 3 5 4
2 2 2 1 1 1 1 1 1 1 1 1 1 1 1 2 10 9 3 1 1 2 2 2 2 2 7 7 1 2 2 2 6 6 6 8 8 8 5 4 5 4 5
2 2 1 1 1 1 1 1 1 1 1 1 1 1 4 2 10 9 4 1 2 3 3 3 7 4 9 8 1 1 2 3 3 4 5 6 5 6 7 2 2 3 3
1 1 1 1 1 1 1 1 1 1 1 1 1 1 1 2 4 10 7 1 2 3 3 4 5 10 10 9 6 2 3 2 5 3 4 3 3 3 2 1 0 1 1
1 1 1 1 1 1 1 1 1 1 2 2 2 2 2 2 8 10 8 6 5 2 3 4 8 11 11 9 5 10 9 5 2 3 3 3 3 3 2 1 0 -1 -1
1 2 1 1 1 1 1 1 2 1 2 2 2 2 2 3 5 10 10 9 7 2 2 8 12 12 12 10 11 10 8 2 2 3 3 3 2 1 1 1 -1 -2 -2
2 2 1 1 2 1 1 1 2 2 2 2 3 3 2 2 3 4 4 5 8 6 8 7 9 8 9 9 7 5 1 1 2 3 2 2 1 1 0 -0 0 0 0
2 2 2 1 1 2 1 1 1 1 1 2 2 2 2 3 3 6 3 2 2 5 6 3 3 3 4 3 3 2 2 1 1 1 1 1 1 1 1 -0 0 0 1
2 2 2 2 2 2 2 2 12 10 10 10 8 4 1 8 11 11 11 11 11 10 3 3 3 3 2 2 2 1 1 2 1 1 1 1 1 1 1 0 0 1 1
2 2 2 2 2 2 2 2 3 6 13 13 12 10 9 9 12 12 12 12 11 8 3 2 2 2 2 2 1 1 1 1 -0 0 1 1 1 1 1 1 1 1 1
1 7 2 2 2 2 2 2 2 2 3 2 11 9 13 13 13 13 12 9 3 3 2 2 2 1 1 1 1 1 1 0 0 0 1 1 1 1 1 1 1 1 1
1 1 1 1 1 2 1 1 1 2 2 2 4 8 12 14 14 13 11 1 2 2 2 2 1 1 1 1 1 1 1 1 1 1 1 1 1 1 1 1 1 5 4
1 6 4 1 2 2 2 2 2 2 2 2 2 2 6 6 4 5 2 1 1 1 1 1 1 1 1 1 1 1 1 1 1 1 1 0 0 0 1 1 1 1 1
1 1 6 1 2 1 2 2 2 2 2 2 2 2 10 1 2 1 1 1 1 1 1 1 1 0 0 0 0 1 1 1 0 0 0 0 0 1 0 0 1 1 1
1 1 1 2 1 2 2 1 1 2 2 2 1 3 14 2 1 1 1 1 0 0 -0 0 0 0 0 0 0 0 1 1 0 0 0 0 0 0 1 1 1 1 1
1 1 2 1 1 4 2 1 2 1 1 1 1 2 4 1 1 1 1 0 0 0 -0 -0 -0 -0 -0 -1 -1 -0 0 0 0 -0 0 0 0 1 1 1 1 1 1
1 1 2 2 1 1 1 1 1 5 2 1 1 1 1 1 1 1 0 0 -0 -0 -0 -0 -0 -0 -0 -0 -1 -1 -1 -1 -1 -1 -1 -0 0 1 0 1 1 1 1
4 4 2 2 2 2 2 2 2 1 1 1 1 1 0 0 0 0 0 -0 -0 -0 -0 -0 -0 -1 -0 -1 -1 -1 2 12 2 4 -1 -0 0 0 0 1 1 1 1
9 8 7 6 6 6 6 6 5 5 5 4 4 3 2 2 1 1 1 0 0 -0 -0 -0 -1 -1 -1 -1 -1 4 11 13 6 12 0 -0 0 0 0 1 1 1 1